| time (UTC) | temp F | wind direction | speed MPH | gust MPH | rain 1hr in | rain 24hr in | rain mn in | humidity % | barometer mb |
| 20260904210004 | 81 | 202 | 4.0 | 10.0 | 0.00 | 0.00 | 0.00 | 1011.5 | |
| 20260904205502 | 80 | 192 | 5.0 | 10.0 | 0.00 | 0.00 | 0.00 | 1011.2 | |
| 20260904205002 | 80 | 221 | 5.0 | 10.0 | 0.00 | 0.00 | 0.00 | 1011.2 | |
| 20260904204504 | 80 | 186 | 5.0 | 11.0 | 0.00 | 0.00 | 0.00 | 1011.5 | |
| 20260904204025 | 80 | 212 | 4.0 | 12.0 | 0.00 | 0.00 | 0.00 | 1011.9 | |
| 20260904203503 | 80 | 210 | 5.0 | 12.0 | 0.00 | 0.00 | 0.00 | 1011.5 | |
| 20260904203002 | 80 | 215 | 5.0 | 9.0 | 0.00 | 0.00 | 0.00 | 1011.2 | |
| 20260904202503 | 80 | 210 | 3.0 | 13.0 | 0.00 | 0.00 | 0.00 | 1011.9 | |
| 20260904202024 | 80 | 194 | 4.0 | 13.0 | 0.00 | 0.00 | 0.00 | 1011.2 | |
| 20260904201504 | 79 | 170 | 6.0 | 11.0 | 0.00 | 0.00 | 0.00 | 1011.2 | |
| 20260904201024 | 79 | 227 | 6.0 | 11.0 | 0.00 | 0.00 | 0.00 | 1011.9 | |
| 20260904200504 | 79 | 222 | 6.0 | 10.0 | 0.00 | 0.00 | 0.00 | 1011.5 | |
| 20260904200002 | 79 | 348 | 2.0 | 8.0 | 0.00 | 0.00 | 0.00 | 1011.5 | |
| 20260904195503 | 79 | 186 | 4.0 | 9.0 | 0.00 | 0.00 | 0.00 | 1011.5 | |
| 20260904195003 | 78 | 182 | 5.0 | 10.0 | 0.00 | 0.00 | 0.00 | 1011.5 | |
| 20260904194503 | 79 | 212 | 6.0 | 10.0 | 0.00 | 0.00 | 0.00 | 1012.2 | |
| 20260904194003 | 79 | 210 | 5.0 | 10.0 | 0.00 | 0.00 | 0.00 | 1011.9 | |
| 20260904193524 | 78 | 205 | 4.0 | 10.0 | 0.00 | 0.00 | 0.00 | 1011.9 | |
| 20260904193002 | 78 | 230 | 6.0 | 10.0 | 0.00 | 0.00 | 0.00 | 1011.5 | |
| 20260904192503 | 78 | 210 | 4.0 | 8.0 | 0.00 | 0.00 | 0.00 | 1011.5 | |
| 20260904192003 | 78 | 146 | 3.0 | 7.0 | 0.00 | 0.00 | 0.00 | 1011.9 | |
| 20260904191503 | 77 | 63 | 3.0 | 10.0 | 0.00 | 0.00 | 0.00 | 1012.6 | |
| 20260904191025 | 76 | 233 | 5.0 | 11.0 | 0.00 | 0.00 | 0.00 | 1012.6 | |
| 20260904190504 | 77 | 223 | 5.0 | 11.0 | 0.00 | 0.00 | 0.00 | 1012.6 | |
| 20260904190002 | 77 | 178 | 5.0 | 12.0 | 0.00 | 0.00 | 0.00 | 1012.6 | |
| 20260904185503 | 76 | 166 | 6.0 | 12.0 | 0.00 | 0.00 | 0.00 | 1013.2 | |
| 20260904185002 | 76 | 220 | 4.0 | 12.0 | 0.00 | 0.00 | 0.00 | 1012.9 | |
| 20260904184503 | 76 | 211 | 6.0 | 12.0 | 0.00 | 0.00 | 0.00 | 1013.2 | |
| 20260904184003 | 77 | 208 | 6.0 | 10.0 | 0.00 | 0.00 | 0.00 | 1013.9 | |
| 20260904183503 | 76 | 111 | 3.0 | 10.0 | 0.00 | 0.00 | 0.00 | 1013.6 | |
| 20260904183025 | 76 | 213 | 4.0 | 10.0 | 0.00 | 0.00 | 0.00 | 1013.9 | |
| 20260904182503 | 76 | 161 | 5.0 | 10.0 | 0.00 | 0.00 | 0.00 | 1013.9 | |
| 20260904182002 | 76 | 176 | 6.0 | 11.0 | 0.00 | 0.00 | 0.00 | 1013.9 | |
| 20260904181524 | 75 | 218 | 6.0 | 11.0 | 0.00 | 0.00 | 0.00 | 1013.6 | |
| 20260904181003 | 74 | 173 | 5.0 | 9.0 | 0.00 | 0.00 | 0.00 | 1013.6 | |
| 20260904180502 | 74 | 263 | 3.0 | 9.0 | 0.00 | 0.00 | 0.00 | 1013.9 | |
| 20260904180003 | 75 | 188 | 4.0 | 9.0 | 0.00 | 0.00 | 0.00 | 1014.3 | |
| 20260904175504 | 74 | 217 | 3.0 | 6.0 | 0.00 | 0.00 | 0.00 | 1013.6 | |
| 20260904175004 | 74 | 6 | 2.0 | 4.0 | 0.00 | 0.00 | 0.00 | 1013.6 | |
| 20260904174503 | 74 | 48 | 1.0 | 7.0 | 0.00 | 0.00 | 0.00 | 1013.9 | |
| 20260904174003 | 75 | 95 | 3.0 | 8.0 | 0.00 | 0.00 | 0.00 | 1013.9 | |
| 20260904173503 | 74 | 141 | 3.0 | 8.0 | 0.00 | 0.00 | 0.00 | 1013.9 | |
| 20260904173025 | 72 | 113 | 3.0 | 6.0 | 0.00 | 0.00 | 0.00 | 1013.6 | |
| 20260904172503 | 72 | 260 | 2.0 | 6.0 | 0.00 | 0.00 | 0.00 | 1013.6 | |
| 20260904172024 | 73 | 233 | 3.0 | 6.0 | 0.00 | 0.00 | 0.00 | 1013.9 | |
| 20260904171504 | 72 | 241 | 4.0 | 7.0 | 0.00 | 0.00 | 0.00 | 1013.6 | |
| 20260904171003 | 72 | 208 | 3.0 | 7.0 | 0.00 | 0.00 | 0.00 | 1013.2 | |
| 20260904170502 | 73 | 231 | 2.0 | 6.0 | 0.00 | 0.00 | 0.00 | 1013.6 | |
| 20260904170003 | 72 | 164 | 3.0 | 6.0 | 0.00 | 0.00 | 0.00 | 1013.2 | |
| 20260904165524 | 71 | 203 | 2.0 | 7.0 | 0.00 | 0.00 | 0.00 | 1013.2 | |
| 20260904165002 | 71 | 186 | 3.0 | 7.0 | 0.00 | 0.00 | 0.00 | 1012.9 | |
| 20260904164504 | 70 | 287 | 2.0 | 4.0 | 0.00 | 0.00 | 0.00 | 1012.9 | |
| 20260904164003 | 71 | 85 | 2.0 | 5.0 | 0.00 | 0.00 | 0.00 | 1012.9 | |
| 20260904163503 | 70 | 153 | 3.0 | 5.0 | 0.00 | 0.00 | 0.00 | 1013.2 | |
| 20260904163003 | 70 | 298 | 1.0 | 4.0 | 0.00 | 0.00 | 0.00 | 1012.9 | |
| 20260904162502 | 70 | 301 | 2.0 | 6.0 | 0.00 | 0.00 | 0.00 | 1012.6 | |
| 20260904162003 | 70 | 50 | 3.0 | 7.0 | 0.00 | 0.00 | 0.00 | 1012.9 | |
| 20260904161504 | 70 | 110 | 4.0 | 7.0 | 0.00 | 0.00 | 0.00 | 1012.9 | |
| 20260904161003 | 70 | 54 | 2.0 | 6.0 | 0.00 | 0.00 | 0.00 | 1012.2 | |
| 20260904160503 | 69 | 88 | 2.0 | 5.0 | 0.00 | 0.00 | 0.00 | 1012.2 | |
| 20260904160003 | 69 | 22 | 2.0 | 5.0 | 0.00 | 0.00 | 0.00 | 1012.6 | |
| 20260904155503 | 69 | 26 | 1.0 | 6.0 | 0.00 | 0.00 | 0.00 | 1012.6 | |
| 20260904155003 | 69 | 34 | 3.0 | 6.0 | 0.00 | 0.00 | 0.00 | 1012.6 | |
| 20260904154503 | 69 | 74 | 3.0 | 6.0 | 0.00 | 0.00 | 0.00 | 1013.2 | |
| 20260904154003 | 68 | 71 | 3.0 | 5.0 | 0.00 | 0.00 | 0.00 | 1012.9 | |
| 20260904153502 | 68 | 100 | 2.0 | 4.0 | 0.00 | 0.00 | 0.00 | 1012.2 | |
| 20260904153025 | 67 | 92 | 2.0 | 5.0 | 0.00 | 0.00 | 0.00 | 1012.2 | |
| 20260904152502 | 67 | 101 | 2.0 | 5.0 | 0.00 | 0.00 | 0.00 | 1012.9 | |
| 20260904152024 | 67 | 102 | 2.0 | 5.0 | 0.00 | 0.00 | 0.00 | 1012.9 | |
| 20260904151503 | 66 | 108 | 3.0 | 6.0 | 0.00 | 0.00 | 0.00 | 1013.2 | |
| 20260904151024 | 66 | 109 | 2.0 | 7.0 | 0.00 | 0.00 | 0.00 | 1012.2 | |
| 20260904150503 | 66 | 116 | 4.0 | 7.0 | 0.00 | 0.00 | 0.00 | 1012.6 | |
| 20260904150024 | 65 | 100 | 3.0 | 7.0 | 0.00 | 0.00 | 0.00 | 1012.9 | |
| 20260904145504 | 65 | 76 | 3.0 | 9.0 | 0.00 | 0.00 | 0.00 | 1012.2 | |
| 20260904145002 | 65 | 84 | 4.0 | 9.0 | 0.00 | 0.00 | 0.00 | 1012.9 | |
| 20260904144503 | 64 | 103 | 4.0 | 7.0 | 0.00 | 0.00 | 0.00 | 1012.2 | |
| 20260904144024 | 64 | 98 | 4.0 | 7.0 | 0.00 | 0.00 | 0.00 | 1012.2 | |
| 20260904143524 | 64 | 87 | 4.0 | 7.0 | 0.00 | 0.00 | 0.00 | 1012.6 | |
| 20260904143002 | 64 | 88 | 3.0 | 7.0 | 0.00 | 0.00 | 0.00 | 1012.9 | |
| 20260904142525 | 64 | 90 | 2.0 | 5.0 | 0.00 | 0.00 | 0.00 | 1013.2 | |
| 20260904142004 | 64 | 109 | 2.0 | 5.0 | 0.00 | 0.00 | 0.00 | 1012.6 | |
| 20260904141502 | 64 | 90 | 2.0 | 5.0 | 0.00 | 0.00 | 0.00 | 1012.9 | |
| 20260904141003 | 63 | 86 | 3.0 | 5.0 | 0.00 | 0.00 | 0.00 | 1012.6 | |
| 20260904140525 | 63 | 95 | 2.0 | 4.0 | 0.00 | 0.00 | 0.00 | 1011.9 | |
| 20260904140024 | 63 | 86 | 2.0 | 4.0 | 0.00 | 0.00 | 0.00 | 1012.9 | |
| 20260904135503 | 63 | 86 | 2.0 | 4.0 | 0.00 | 0.00 | 0.00 | 1012.2 | |
| 20260904135003 | 63 | 64 | 2.0 | 3.0 | 0.00 | 0.00 | 0.00 | 1012.2 | |
| 20260904134502 | 63 | 61 | 1.0 | 3.0 | 0.00 | 0.00 | 0.00 | 1012.2 | |
| 20260904134003 | 63 | 79 | 1.0 | 3.0 | 0.00 | 0.00 | 0.00 | 1011.9 | |
| 20260904133502 | 63 | 95 | 2.0 | 3.0 | 0.00 | 0.00 | 0.00 | 1012.2 | |
| 20260904133003 | 63 | 77 | 2.0 | 4.0 | 0.00 | 0.00 | 0.00 | 1011.9 | |
| 20260904132524 | 63 | 53 | 2.0 | 4.0 | 0.00 | 0.00 | 0.00 | 1012.2 | |
| 20260904132024 | 63 | 64 | 2.0 | 5.0 | 0.00 | 0.00 | 0.00 | 1012.2 | |
| 20260904131525 | 63 | 77 | 3.0 | 5.0 | 0.00 | 0.00 | 0.00 | 1011.9 | |
| 20260904131003 | 63 | 66 | 2.0 | 4.0 | 0.00 | 0.00 | 0.00 | 1011.9 | |
| 20260904130504 | 63 | 78 | 2.0 | 4.0 | 0.00 | 0.00 | 0.00 | 1012.2 | |
| 20260904130003 | 64 | 79 | 2.0 | 4.0 | 0.00 | 0.00 | 0.00 | 1011.9 | |
| 20260904125503 | 64 | 88 | 3.0 | 4.0 | 0.00 | 0.00 | 0.00 | 1012.2 | |
| 20260904125002 | 64 | 85 | 2.0 | 4.0 | 0.00 | 0.00 | 0.00 | 1012.6 | |
| 20260904124503 | 64 | 88 | 2.0 | 4.0 | 0.00 | 0.00 | 0.00 | 1012.6 | |
| 20260904124002 | 64 | 88 | 3.0 | 4.0 | 0.00 | 0.00 | 0.00 | 1012.2 | |
| 20260904123503 | 64 | 87 | 2.0 | 4.0 | 0.00 | 0.00 | 0.00 | 1012.6 | |
| 20260904123002 | 64 | 75 | 2.0 | 4.0 | 0.00 | 0.00 | 0.00 | 1012.2 | |
| 20260904122503 | 64 | 69 | 2.0 | 4.0 | 0.00 | 0.00 | 0.00 | 1012.6 | |
| 20260904122003 | 64 | 92 | 2.0 | 3.0 | 0.00 | 0.00 | 0.00 | 1012.6 | |
| 20260904121525 | 64 | 84 | 2.0 | 3.0 | 0.00 | 0.00 | 0.00 | 1012.6 | |
| 20260904121024 | 64 | 90 | 2.0 | 3.0 | 0.00 | 0.00 | 0.00 | 1012.6 | |
| 20260904120503 | 64 | 106 | 2.0 | 3.0 | 0.00 | 0.00 | 0.00 | 1012.2 | |
| 20260904120003 | 63 | 113 | 2.0 | 3.0 | 0.00 | 0.00 | 0.00 | 1011.2 | |
| 20260904115504 | 64 | 109 | 2.0 | 3.0 | 0.00 | 0.00 | 0.00 | 1011.9 | |
| 20260904115002 | 64 | 113 | 2.0 | 3.0 | 0.00 | 0.00 | 0.00 | 1011.5 | |
| 20260904114503 | 64 | 115 | 1.0 | 3.0 | 0.00 | 0.00 | 0.00 | 1011.9 | |
| 20260904114002 | 64 | 108 | 2.0 | 3.0 | 0.00 | 0.00 | 0.00 | 1012.6 | |
| 20260904113503 | 64 | 102 | 2.0 | 3.0 | 0.00 | 0.00 | 0.00 | 1012.2 | |
| 20260904113024 | 64 | 135 | 1.0 | 3.0 | 0.00 | 0.00 | 0.00 | 1011.9 | |
| 20260904112503 | 64 | 89 | 1.0 | 3.0 | 0.00 | 0.00 | 0.00 | 1012.6 | |
| 20260904112004 | 64 | 95 | 2.0 | 3.0 | 0.00 | 0.00 | 0.00 | 1012.2 | |
| 20260904111502 | 64 | 111 | 1.0 | 3.0 | 0.00 | 0.00 | 0.00 | 1011.9 | |
| 20260904111003 | 64 | 109 | 2.0 | 4.0 | 0.00 | 0.00 | 0.00 | 1012.2 | |
| 20260904110502 | 64 | 93 | 2.0 | 4.0 | 0.00 | 0.00 | 0.00 | 1012.6 | |
| 20260904110003 | 64 | 84 | 2.0 | 5.0 | 0.00 | 0.00 | 0.00 | 1012.2 | |
| 20260904105524 | 64 | 81 | 2.0 | 5.0 | 0.00 | 0.00 | 0.00 | 1012.2 | |
| 20260904105003 | 64 | 88 | 2.0 | 3.0 | 0.00 | 0.00 | 0.00 | 1012.6 | |
| 20260904104504 | 64 | 90 | 2.0 | 3.0 | 0.00 | 0.00 | 0.00 | 1012.6 | |
| 20260904104003 | 64 | 97 | 2.0 | 3.0 | 0.00 | 0.00 | 0.00 | 1012.2 | |
| 20260904103503 | 64 | 90 | 1.0 | 5.0 | 0.00 | 0.00 | 0.00 | 1012.2 | |
| 20260904103003 | 64 | 88 | 3.0 | 5.0 | 0.00 | 0.00 | 0.00 | 1011.9 | |
| 20260904102503 | 64 | 91 | 2.0 | 4.0 | 0.00 | 0.00 | 0.00 | 1012.2 | |
| 20260904102003 | 64 | 86 | 2.0 | 4.0 | 0.00 | 0.00 | 0.00 | 1011.9 | |
| 20260904101502 | 64 | 87 | 2.0 | 3.0 | 0.00 | 0.00 | 0.00 | 1012.6 | |
| 20260904101003 | 64 | 104 | 1.0 | 3.0 | 0.00 | 0.00 | 0.00 | 1012.6 | |
| 20260904100524 | 64 | 90 | 2.0 | 3.0 | 0.00 | 0.00 | 0.00 | 1012.6 | |
| 20260904100003 | 65 | 87 | 2.0 | 3.0 | 0.00 | 0.00 | 0.00 | 1012.6 | |
| 20260904095504 | 65 | 90 | 1.0 | 2.0 | 0.00 | 0.00 | 0.00 | 1012.2 | |
| 20260904095004 | 65 | 80 | 1.0 | 2.0 | 0.00 | 0.00 | 0.00 | 1012.2 | |
| 20260904094503 | 65 | 89 | 1.0 | 2.0 | 0.00 | 0.00 | 0.00 | 1011.9 | |
| 20260904094003 | 65 | 96 | 1.0 | 2.0 | 0.00 | 0.00 | 0.00 | 1012.2 | |
| 20260904093503 | 65 | 91 | 1.0 | 2.0 | 0.00 | 0.00 | 0.00 | 1012.2 | |
| 20260904093003 | 65 | 90 | 0.0 | 1.0 | 0.00 | 0.00 | 0.00 | 1012.6 | |
| 20260904092503 | 65 | 270 | 0.0 | 0.0 | 0.00 | 0.00 | 0.00 | 1012.9 | |
| 20260904092024 | 65 | 270 | 0.0 | 1.0 | 0.00 | 0.00 | 0.00 | 1012.2 | |
| 20260904091504 | 65 | 11 | 0.0 | 2.0 | 0.00 | 0.00 | 0.00 | 1012.6 | |
| 20260904091004 | 65 | 39 | 1.0 | 2.0 | 0.00 | 0.00 | 0.00 | 1012.6 | |
| 20260904090504 | 65 | 45 | 1.0 | 2.0 | 0.00 | 0.00 | 0.00 | 1011.9 | |
| 20260904090003 | 65 | 45 | 1.0 | 2.0 | 0.00 | 0.00 | 0.00 | 1011.9 | |
| 20260904085504 | 65 | 45 | 1.0 | 3.0 | 0.00 | 0.00 | 0.00 | 1012.2 | |
| 20260904085025 | 65 | 45 | 1.0 | 3.0 | 0.00 | 0.00 | 0.00 | 1012.2 | |
| 20260904084504 | 65 | 202 | 1.0 | 2.0 | 0.00 | 0.00 | 0.00 | 1012.6 | |
| 20260904084003 | 65 | 202 | 1.0 | 2.0 | 0.00 | 0.00 | 0.00 | 1012.6 | |
| 20260904083503 | 65 | 202 | 1.0 | 3.0 | 0.00 | 0.00 | 0.00 | 1012.2 | |
| 20260904083025 | 66 | 224 | 1.0 | 3.0 | 0.00 | 0.00 | 0.00 | 1012.2 | |
| 20260904082503 | 66 | 247 | 1.0 | 1.0 | 0.00 | 0.00 | 0.00 | 1011.9 | |
| 20260904082003 | 66 | 269 | 1.0 | 1.0 | 0.00 | 0.00 | 0.00 | 1012.6 | |
| 20260904081503 | 66 | 313 | 1.0 | 2.0 | 0.00 | 0.00 | 0.00 | 1012.2 | |
| 20260904081002 | 66 | 337 | 0.0 | 2.0 | 0.00 | 0.00 | 0.00 | 1012.6 | |
| 20260904080503 | 66 | 337 | 1.0 | 1.0 | 0.00 | 0.00 | 0.00 | 1012.6 | |
| 20260904080003 | 66 | 337 | 0.0 | 1.0 | 0.00 | 0.00 | 0.00 | 1012.2 | |
| 20260904075503 | 66 | 338 | 0.0 | 1.0 | 0.00 | 0.00 | 0.00 | 1012.2 | |
| 20260904075005 | 66 | 338 | 0.0 | 1.0 | 0.00 | 0.00 | 0.00 | 1012.2 | |
| 20260904074503 | 66 | 92 | 0.0 | 1.0 | 0.00 | 0.00 | 0.00 | 1012.2 | |
| 20260904074003 | 66 | 117 | 1.0 | 1.0 | 0.00 | 0.00 | 0.00 | 1012.2 | |
| 20260904073503 | 66 | 293 | 0.0 | 1.0 | 0.00 | 0.00 | 0.00 | 1012.2 | |
| 20260904073004 | 66 | 45 | 0.0 | 1.0 | 0.00 | 0.00 | 0.00 | 1012.6 | |
| 20260904072503 | 66 | 81 | 0.0 | 1.0 | 0.00 | 0.00 | 0.00 | 1012.2 | |
| 20260904072002 | 67 | 68 | 0.0 | 2.0 | 0.00 | 0.00 | 0.00 | 1012.6 | |
| 20260904071503 | 67 | 68 | 1.0 | 2.0 | 0.00 | 0.00 | 0.00 | 1012.9 | |
| 20260904071003 | 67 | 68 | 1.0 | 2.0 | 0.00 | 0.00 | 0.00 | 1012.9 | |
| 20260904070503 | 67 | 73 | 1.0 | 2.0 | 0.00 | 0.00 | 0.00 | 1012.6 | |
| 20260904070025 | 67 | 89 | 1.0 | 2.0 | 0.00 | 0.00 | 0.00 | 1012.6 | |
| 20260904065502 | 67 | 86 | 1.0 | 2.0 | 0.00 | 0.00 | 0.00 | 1012.2 | |
| 20260904065004 | 67 | 90 | 1.0 | 2.0 | 0.00 | 0.00 | 0.00 | 1012.6 | |
| 20260904064503 | 67 | 89 | 1.0 | 2.0 | 0.00 | 0.00 | 0.00 | 1012.6 | |
| 20260904064002 | 67 | 338 | 0.0 | 1.0 | 0.00 | 0.00 | 0.00 | 1012.2 | |
| 20260904063524 | 67 | 293 | 0.0 | 1.0 | 0.00 | 0.00 | 0.00 | 1012.2 | |
| 20260904063003 | 67 | 314 | 0.0 | 1.0 | 0.00 | 0.00 | 0.00 | 1012.2 | |
| 20260904062523 | 67 | 328 | 1.0 | 1.0 | 0.00 | 0.00 | 0.00 | 1012.2 | |
| 20260904062002 | 68 | 293 | 0.0 | 2.0 | 0.00 | 0.00 | 0.00 | 1012.6 | |
| 20260904061523 | 68 | 314 | 0.0 | 2.0 | 0.00 | 0.00 | 0.00 | 1012.2 | |
| 20260904061002 | 68 | 295 | 0.0 | 2.0 | 0.00 | 0.00 | 0.00 | 1012.2 | |
| 20260904060502 | 68 | 314 | 1.0 | 2.0 | 0.00 | 0.00 | 0.00 | 1011.9 | |
| 20260904060002 | 68 | 275 | 0.0 | 2.0 | 0.00 | 0.00 | 0.00 | 1011.9 | |
| 20260904055502 | 68 | 303 | 1.0 | 2.0 | 0.00 | 0.00 | 0.00 | 1011.9 | |
| 20260904055002 | 68 | 275 | 1.0 | 3.0 | 0.00 | 0.00 | 0.00 | 1012.2 | |
| 20260904054502 | 68 | 280 | 1.0 | 3.0 | 0.00 | 0.00 | 0.00 | 1011.9 | |
| 20260904054002 | 68 | 291 | 1.0 | 2.0 | 0.00 | 0.00 | 0.00 | 1012.2 | |
| 20260904053525 | 68 | 291 | 1.0 | 3.0 | 0.00 | 0.00 | 0.00 | 1012.2 | |
| 20260904053001 | 68 | 280 | 1.0 | 3.0 | 0.00 | 0.00 | 0.00 | 1012.2 | |
| 20260904052523 | 68 | 253 | 1.0 | 3.0 | 0.00 | 0.00 | 0.00 | 1012.9 | |
| 20260904052003 | 68 | 283 | 2.0 | 4.0 | 0.00 | 0.00 | 0.00 | 1012.6 | |
| 20260904051501 | 68 | 277 | 2.0 | 5.0 | 0.00 | 0.00 | 0.00 | 1012.2 | |
| 20260904051002 | 68 | 279 | 3.0 | 5.0 | 0.00 | 0.00 | 0.00 | 1012.9 | |
| 20260904050502 | 68 | 305 | 2.0 | 5.0 | 0.00 | 0.00 | 0.00 | 1012.9 | |
| 20260904050024 | 68 | 280 | 3.0 | 5.0 | 0.00 | 0.00 | 0.00 | 1012.9 | |
| 20260904045502 | 68 | 285 | 2.0 | 5.0 | 0.00 | 0.00 | 0.00 | 1012.6 | |
| 20260904045002 | 68 | 278 | 2.0 | 5.0 | 0.00 | 0.00 | 0.00 | 1012.2 | |
| 20260904044502 | 68 | 284 | 3.0 | 5.0 | 0.00 | 0.00 | 0.00 | 1012.6 | |
| 20260904044002 | 68 | 285 | 3.0 | 4.0 | 0.00 | 0.00 | 0.00 | 1011.9 | |
| 20260904043502 | 69 | 285 | 2.0 | 4.0 | 0.00 | 0.00 | 0.00 | 1012.2 | |
| 20260904043002 | 69 | 249 | 2.0 | 4.0 | 0.00 | 0.00 | 0.00 | 1011.9 | |
| 20260904042502 | 69 | 268 | 2.0 | 3.0 | 0.00 | 0.00 | 0.00 | 1012.2 | |
| 20260904042002 | 69 | 283 | 1.0 | 4.0 | 0.00 | 0.00 | 0.00 | 1012.6 | |
| 20260904041501 | 69 | 254 | 2.0 | 5.0 | 0.00 | 0.00 | 0.00 | 1012.6 | |
| 20260904041002 | 69 | 246 | 2.0 | 5.0 | 0.00 | 0.00 | 0.00 | 1012.6 | |
| 20260904040503 | 69 | 287 | 3.0 | 5.0 | 0.00 | 0.00 | 0.00 | 1012.6 | |
| 20260904040023 | 69 | 293 | 3.0 | 6.0 | 0.00 | 0.00 | 0.00 | 1011.9 | |
| 20260904035502 | 69 | 283 | 4.0 | 6.0 | 0.00 | 0.00 | 0.00 | 1012.2 | |
| 20260904035002 | 69 | 277 | 4.0 | 6.0 | 0.00 | 0.00 | 0.00 | 1011.9 | |
| 20260904034502 | 69 | 290 | 3.0 | 5.0 | 0.00 | 0.00 | 0.00 | 1011.9 | |
| 20260904034002 | 69 | 264 | 3.0 | 5.0 | 0.00 | 0.00 | 0.00 | 1011.5 | |
| 20260904033501 | 69 | 278 | 3.0 | 7.0 | 0.00 | 0.00 | 0.00 | 1011.5 | |
| 20260904033002 | 69 | 268 | 4.0 | 7.0 | 0.00 | 0.00 | 0.00 | 1011.5 | |
| 20260904032503 | 69 | 243 | 3.0 | 6.0 | 0.00 | 0.00 | 0.00 | 1011.5 | |
| 20260904032023 | 69 | 266 | 4.0 | 7.0 | 0.00 | 0.00 | 0.00 | 1011.2 | |
| 20260904031502 | 70 | 240 | 4.0 | 7.0 | 0.00 | 0.00 | 0.00 | 1011.9 | |
| 20260904031023 | 70 | 255 | 3.0 | 6.0 | 0.00 | 0.00 | 0.00 | 1011.9 | |
| 20260904030523 | 70 | 244 | 2.0 | 6.0 | 0.00 | 0.00 | 0.00 | 1011.5 | |
| 20260904030002 | 70 | 239 | 3.0 | 5.0 | 0.00 | 0.00 | 0.00 | 1010.5 | |
| 20260904025524 | 71 | 211 | 2.0 | 5.0 | 0.00 | 0.00 | 0.00 | 1010.9 | |
| 20260904025024 | 71 | 215 | 2.0 | 5.0 | 0.00 | 0.00 | 0.00 | 1010.9 | |
| 20260904024503 | 71 | 200 | 4.0 | 6.0 | 0.00 | 0.00 | 0.00 | 1010.9 | |
| 20260904024025 | 71 | 226 | 5.0 | 7.0 | 0.00 | 0.00 | 0.00 | 1010.9 | |
| 20260904023503 | 71 | 225 | 4.0 | 7.0 | 0.00 | 0.00 | 0.00 | 1011.2 | |
| 20260904023003 | 71 | 201 | 4.0 | 8.0 | 0.00 | 0.00 | 0.00 | 1011.2 | |
| 20260904022501 | 72 | 207 | 4.0 | 8.0 | 0.00 | 0.00 | 0.00 | 1011.2 | |
| 20260904022003 | 72 | 177 | 4.0 | 7.0 | 0.00 | 0.00 | 0.00 | 1010.2 | |
| 20260904021502 | 72 | 198 | 3.0 | 10.0 | 0.00 | 0.00 | 0.00 | 1010.9 | |
| 20260904021002 | 72 | 225 | 6.0 | 10.0 | 0.00 | 0.00 | 0.00 | 1010.2 | |
| 20260904020503 | 73 | 204 | 4.0 | 8.0 | 0.00 | 0.00 | 0.00 | 1010.2 | |
| 20260904020003 | 74 | 197 | 4.0 | 9.0 | 0.00 | 0.00 | 0.00 | 1010.5 | |
| 20260904015524 | 74 | 218 | 3.0 | 9.0 | 0.00 | 0.00 | 0.00 | 1010.9 | |
| 20260904015023 | 74 | 213 | 5.0 | 9.0 | 0.00 | 0.00 | 0.00 | 1010.9 | |
| 20260904014502 | 75 | 197 | 3.0 | 10.0 | 0.00 | 0.00 | 0.00 | 1010.5 | |
| 20260904014002 | 76 | 180 | 5.0 | 10.0 | 0.00 | 0.00 | 0.00 | 1011.5 | |
| 20260904013503 | 75 | 175 | 4.0 | 9.0 | 0.00 | 0.00 | 0.00 | 1011.2 | |
| 20260904013002 | 75 | 209 | 5.0 | 10.0 | 0.00 | 0.00 | 0.00 | 1011.5 | |
| 20260904012502 | 76 | 173 | 7.0 | 10.0 | 0.00 | 0.00 | 0.00 | 1011.5 | |
| 20260904012002 | 76 | 169 | 6.0 | 10.0 | 0.00 | 0.00 | 0.00 | 1011.5 | |
| 20260904011502 | 76 | 203 | 4.0 | 10.0 | 0.00 | 0.00 | 0.00 | 1011.9 | |
| 20260904011002 | 76 | 227 | 6.0 | 10.0 | 0.00 | 0.00 | 0.00 | 1011.5 | |
| 20260904010503 | 77 | 211 | 4.0 | 12.0 | 0.00 | 0.00 | 0.00 | 1011.5 | |
| 20260904010003 | 77 | 179 | 5.0 | 12.0 | 0.00 | 0.00 | 0.00 | 1011.2 | |
| 20260904005501 | 77 | 189 | 5.0 | 10.0 | 0.00 | 0.00 | 0.00 | 1011.5 | |
| 20260904005003 | 77 | 215 | 6.0 | 10.0 | 0.00 | 0.00 | 0.00 | 1011.5 | |
| 20260904004502 | 77 | 218 | 5.0 | 11.0 | 0.00 | 0.00 | 0.00 | 1011.2 | |
| 20260904004002 | 77 | 217 | 7.0 | 11.0 | 0.00 | 0.00 | 0.00 | 1011.2 | |
| 20260904003501 | 77 | 182 | 5.0 | 12.0 | 0.00 | 0.00 | 0.00 | 1011.5 | |
| 20260904003024 | 77 | 216 | 6.0 | 12.0 | 0.00 | 0.00 | 0.00 | 1011.9 | |
| 20260904002502 | 78 | 214 | 5.0 | 11.0 | 0.00 | 0.00 | 0.00 | 1011.5 | |
| 20260904002003 | 78 | 186 | 6.0 | 11.0 | 0.00 | 0.00 | 0.00 | 1011.5 | |
| 20260904001502 | 79 | 190 | 5.0 | 11.0 | 0.00 | 0.00 | 0.00 | 1011.5 | |
| 20260904001001 | 79 | 182 | 6.0 | 11.0 | 0.00 | 0.00 | 0.00 | 1011.5 | |
| 20260904000503 | 79 | 191 | 6.0 | 9.0 | 0.00 | 0.00 | 0.00 | 1011.5 | |
| 20260904000002 | 79 | 225 | 5.0 | 11.0 | 0.00 | 0.00 | 0.00 | 1011.5 | |
| 20260903235502 | 79 | 187 | 6.0 | 11.0 | 0.00 | 0.00 | 0.00 | 1011.5 | |
| 20260903235024 | 78 | 214 | 6.0 | 10.0 | 0.00 | 0.00 | 0.00 | 1011.5 | |
| 20260903234503 | 79 | 216 | 6.0 | 12.0 | 0.00 | 0.00 | 0.00 | 1011.5 | |
| 20260903234003 | 79 | 190 | 4.0 | 12.0 | 0.00 | 0.00 | 0.00 | 1011.2 | |
| 20260903233501 | 79 | 211 | 4.0 | 10.0 | 0.00 | 0.00 | 0.00 | 1011.2 | |
| 20260903233002 | 79 | 211 | 5.0 | 11.0 | 0.00 | 0.00 | 0.00 | 1011.5 | |
| 20260903232502 | 79 | 197 | 6.0 | 11.0 | 0.00 | 0.00 | 0.00 | 1011.5 | |
| 20260903232024 | 78 | 209 | 6.0 | 12.0 | 0.00 | 0.00 | 0.00 | 1011.9 | |
| 20260903231502 | 79 | 195 | 6.0 | 12.0 | 0.00 | 0.00 | 0.00 | 1011.5 | |
| 20260903231002 | 79 | 223 | 6.0 | 10.0 | 0.00 | 0.00 | 0.00 | 1011.5 | |
| 20260903230502 | 79 | 212 | 4.0 | 11.0 | 0.00 | 0.00 | 0.00 | 1011.2 | |
| 20260903230003 | 78 | 213 | 6.0 | 12.0 | 0.00 | 0.00 | 0.00 | 1011.2 | |
| 20260903225504 | 79 | 233 | 6.0 | 13.0 | 0.00 | 0.00 | 0.00 | 1011.2 | |
| 20260903225002 | 79 | 208 | 5.0 | 14.0 | 0.00 | 0.00 | 0.00 | 1011.5 | |
| 20260903224503 | 79 | 211 | 6.0 | 14.0 | 0.00 | 0.00 | 0.00 | 1011.2 | |
| 20260903224003 | 79 | 233 | 5.0 | 12.0 | 0.00 | 0.00 | 0.00 | 1011.5 | |
| 20260903223502 | 79 | 221 | 7.0 | 11.0 | 0.00 | 0.00 | 0.00 | 1011.9 | |
| 20260903223002 | 79 | 215 | 6.0 | 11.0 | 0.00 | 0.00 | 0.00 | 1011.5 | |
| 20260903222502 | 79 | 205 | 5.0 | 10.0 | 0.00 | 0.00 | 0.00 | 1011.9 | |
| 20260903222002 | 79 | 207 | 6.0 | 13.0 | 0.00 | 0.00 | 0.00 | 1012.2 | |
| 20260903221523 | 78 | 208 | 6.0 | 14.0 | 0.00 | 0.00 | 0.00 | 1012.6 | |
| 20260903221002 | 78 | 269 | 9.0 | 15.0 | 0.00 | 0.00 | 0.00 | 1011.9 | |
| 20260903220501 | 78 | 220 | 6.0 | 16.0 | 0.00 | 0.00 | 0.00 | 1011.9 | |
| 20260903220002 | 78 | 223 | 8.0 | 16.0 | 0.00 | 0.00 | 0.00 | 1011.5 | |
| 20260903215502 | 79 | 223 | 6.0 | 16.0 | 0.00 | 0.00 | 0.00 | 1011.9 | |
| 20260903215003 | 79 | 227 | 9.0 | 16.0 | 0.00 | 0.00 | 0.00 | 1011.5 | |
| 20260903214502 | 80 | 210 | 7.0 | 14.0 | 0.00 | 0.00 | 0.00 | 1012.2 | |
| 20260903214024 | 79 | 180 | 7.0 | 14.0 | 0.00 | 0.00 | 0.00 | 1012.6 | |
| 20260903213502 | 79 | 237 | 7.0 | 14.0 | 0.00 | 0.00 | 0.00 | 1012.6 | |
| 20260903213002 | 78 | 230 | 6.0 | 14.0 | 0.00 | 0.00 | 0.00 | 1012.2 | |
| 20260903212502 | 79 | 223 | 7.0 | 13.0 | 0.00 | 0.00 | 0.00 | 1012.2 | |
| 20260903212002 | 80 | 223 | 7.0 | 13.0 | 0.00 | 0.00 | 0.00 | 1012.2 | |
| 20260903211502 | 79 | 176 | 5.0 | 12.0 | 0.00 | 0.00 | 0.00 | 1011.9 | |
| 20260903211002 | 79 | 208 | 6.0 | 12.0 | 0.00 | 0.00 | 0.00 | 1012.2 | |
| 20260903210502 | 79 | 226 | 5.0 | 12.0 | 0.00 | 0.00 | 0.00 | 1012.2 |